Location: Clermont
(50.2608°N, 4.3172°E)
Time: 21:01:17
(UTC+00:00)

Cosmos 2221 Rocket - Pass Details

Date: 13 August 2020
Orbit: 621 x 647 km, 82.5° (Epoch: 21 September)

Event Time Altitude Azimuth Distance (km) Brightness Sun altitude
Rises 21:13:33 0° 354° (N) 2,936 8.0 -17.1°
Reaches altitude 10° 21:15:53 10° 1° (N) 2,027 6.9 -17.4°
Maximum altitude 21:20:12 45° 74° (ENE) 878 4.1 -17.8°
Enters shadow 21:21:33 34° 118° (ESE) 1,049 4.2 -17.9°
